Weather Roundup
Issued by NWS

Home | Current Version | Previous Version | Graphics & Text | Print | Product List | Glossary Off
Versions: 1 2 3 4 5 6 7 8 9 10 11 12 13 14 15 16 17 18 19 20 21 22 23 24 25 26 27 28 29 30 31 32 33 34 35 36 37 38 39 40 41 42 43 44 45 46 47 48 49 50

000
NZUS93 KARX 290759
HRRWXR

CURRENT HOURLY OBSERVATIONS ACROSS
MUCH OF THE UPPER MISSISSIPPI VALLEY
NATIONAL WEATHER SERVICE LA CROSSE WI
200 AM CST SAT NOV 29 2014


...SOUTHEAST MINNESOTA...


CITY           SKY/WX    TMP DP  RH WIND       PRES   REMARKS
ROCHESTER      PTCLDY    23  21  92 SE14      29.60F FOG     WCI  11
ROCHESTER/MAYO FAIR      23  21  93 SE9       29.62F WCI  13
WINONA         PTCLDY    25  23  93 S3        29.68F
AUSTIN         MOCLDY    23  21  93 SE6       29.61F FOG     WCI  16
ALBERT LEA     PTCLDY    23  23 100 SE9       29.59F FOG     WCI  13
DODGE CENTER   PTCLDY    25  25 100 SE14      29.59F FOG     WCI  13
PRESTON        PTCLDY    25  23  93 SE8       29.63F FOG     WCI  16
OWATONNA       MOCLDY    27  23  86 SE16      29.57F WCI  14
FARIBAULT      MOCLDY    25  21  86 SE6       29.59F WCI  18
$$

...ELSEWHERE IN MINNESOTA...


CITY           SKY/WX    TMP DP  RH WIND       PRES   REMARKS
MINNEAPOLIS    MOCLDY    22  18  85 SE7       29.61F WCI  13
INTNL FALLS    CLOUDY    18  13  80 SE6       29.58F WCI  10
DULUTH         CLOUDY    19  15  84 SE10      29.60F FOG     WCI   7
RED WING       PTCLDY    27  21  80 SE9       29.64F WCI  17
REDWOOD FALLS  PTCLDY    19  17  92 SE9       29.55F FOG     WCI   8
MANKATO        MOCLDY    25  19  80 SE13      29.57F WCI  13
WORTHINGTON    PTCLDY    21  19  93 S8        29.53F WCI  12
FAIRMONT       PTCLDY    18  12  79 SE7       29.55F WCI   8
$$

...SOUTHWEST WISCONSIN...


CITY           SKY/WX    TMP DP  RH WIND       PRES   REMARKS
LA CROSSE      PTCLDY    25  21  85 SE6       29.69F WCI  18
PRAIRIE DU CHI CLEAR     28  25  91 E3        29.70F FOG
BOSCOBEL       CLEAR     23  20  88 NE5       29.72F FOG     WCI  17
LONE ROCK      NOT AVBL
PLATTEVILLE    CLEAR     27  26  96 CALM      29.71F
FORT MC COY    PTCLDY    21  21  98 CALM      29.71F
VIROQUA        CLOUDY    26  26 100 SE7       29.68F WCI  18
WIS DELLS      NOT AVBL
$$

...ELSEWHERE IN WISCONSIN...


CITY           SKY/WX    TMP DP  RH WIND       PRES   REMARKS
MILWAUKEE      MOCLDY    33  28  81 S9        29.81F WCI  25
MADISON        CLEAR     27  25  92 SE5       29.75F FOG     WCI  22
GREEN BAY      FRZ RAIN  29  26  89 NE3       29.79F FOG
EAU CLAIRE     NOT AVBL
BLACK RVR FLS  FAIR      19  19 100 NE3       29.71F FOG
MEDFORD        CLOUDY    19  18  95 SE5       29.69F FOG     WCI  13
WAUSAU         CLOUDY    20  18  92 E7        29.72F FOG     WCI  11
WIS RAPIDS     CLOUDY    24  21  88 E5        29.74F FOG     WCI  18
MARSHFIELD     CLOUDY    23  20  88 E7        29.71F FOG     WCI  15
RICE LAKE      MOCLDY    19  17  90 SE7       29.69F WCI  10
$$

...NORTHEAST IOWA...


CITY           SKY/WX    TMP DP  RH WIND       PRES   REMARKS
DECORAH        CLOUDY    27  27 100 SE7       29.65F FOG     WCI  19
MASON CITY     MOCLDY    23  22  96 SE8       29.61F FOG     WCI  14
CHARLES CITY   CLOUDY    28  27  93 SE12      29.63F FOG     WCI  18
OELWEIN        PTCLDY    30  28  93 SE13      29.65F FOG     WCI  20
$$

...ELSEWHERE IN IOWA...


CITY           SKY/WX    TMP DP  RH WIND       PRES   REMARKS
DES MOINES     MOCLDY    36  31  82 SE8       29.60F WCI  30
IOWA CITY      CLEAR     30  28  92 SE3       29.70F
FORT DODGE     MOCLDY    28  23  80 CALM      29.58S
$$

...NORTHERN ILLINOIS...


CITY           SKY/WX    TMP DP  RH WIND       PRES   REMARKS
CHICAGO-OHARE  PTCLDY    31  27  85 S10       29.82F WCI  22
CHICAGO-MIDWAY MOCLDY    33  27  78 S9        29.85F WCI  25
MOLINE         CLEAR     33  29  85 VRB3      29.72F
ROCKFORD       CLEAR     30  26  85 SE10      29.78F WCI  21
PEORIA         PTCLDY    37  31  78 S14       29.79F WCI  28
$$

NOTE: "FAIR" INDICATES FEW OR NO CLOUDS BELOW 12,000 FEET WITH NO
SIGNIFICANT WEATHER AND/OR OBSTRUCTIONS TO VISIBILITY. WIND
SPEEDS ARE IN MILES-PER-HOUR.



USA.gov is the U.S. government's official web portal to all federal, state and local government web resources and services.